Regional Weather Roundup
Issued by NWS

Home | Current Version | Previous Version | Graphics & Text | Print | Product List | Glossary On
Versions: 1 2 3 4 5 6 7 8 9 10 11 12 13 14 15 16 17 18 19 20 21 22 23 24 25 26 27
000
ASUS45 KBOI 172010
RWRID

IDAHO REGIONAL WEATHER ROUNDUP
NATIONAL WEATHER SERVICE BOISE ID
100 PM MST TUE JAN 17 2017

NOTE: "FAIR" INDICATES FEW OR NO CLOUDS BELOW 12000 FEET
WITH NO SIGNIFICANT WEATHER AND/OR OBSTRUCTIONS TO VISIBILITY

IDZ012-014-172100-
SOUTHWEST IDAHO


CITY           SKY/WX    TMP DP  RH WIND       PRES   REMARKS
BOISE          SUNNY     12   4  70 W5        30.32F WCI   4
CALDWELL       SUNNY     23   6  48 CALM      30.39F HAZE
MOUNTAIN HOME  SUNNY     11  10  99 NW8       30.29F WCI  -1
$$

IDZ016-017-172100-
SOUTHCENTRAL IDAHO


CITY           SKY/WX    TMP DP  RH WIND       PRES   REMARKS
BURLEY         SUNNY     20   9  62 NE14      30.19F WCI   7
JEROME         SUNNY     16   9  74 NE18      30.21F WCI   0
TWIN FALLS     SUNNY     20  11  68 NE10      30.21F WCI   9
$$

IDZ019>023-172100-
SOUTHEAST IDAHO


CITY           SKY/WX    TMP DP  RH WIND       PRES   REMARKS
IDAHO FALLS    CLOUDY     7   3  84 N8        30.27F WCI  -6
POCATELLO      CLOUDY    13   5  70 NE9       30.26F WCI   1
REXBURG        CLOUDY    10   1  67 NE5       30.26F WCI   2
$$

IDZ006-010-011-018-031-032-172100-
CENTRAL IDAHO MOUNTAINS


CITY           SKY/WX    TMP DP  RH WIND       PRES   REMARKS
MCCALL         MOSUNNY   13   8  81 SW3       30.12F
HAILEY         SUNNY     21  10  63 CALM      30.19F
STANLEY          N/A     12   2  64 CALM      30.15F
SALMON         CLOUDY    -6  -9  84 CALM      30.33F
CHALLIS        SUNNY     -2 -10  69 CALM      30.23F
$$

IDZ002-004-006-007-026-172100-
NORTHERN IDAHO


CITY           SKY/WX    TMP DP  RH WIND       PRES   REMARKS
LEWISTON       PTSUNNY   33  20  58 E22       30.05F WCI  21
LOWELL           N/A     27  19  72 N6        30.15F WCI  20
COEUR D`ALENE  CLOUDY    27  24  89 E3        30.02F
MULLAN PASS    CLOUDY    31  20  63 S8G17     29.91F WCI  23
$$




USA.gov is the U.S. government's official web portal to all federal, state and local government web resources and services.